sat.trackr.live / text

‹ back to catalog

STARLINK-37153

NORAD 68664 · 2026-077C

PAYLOAD ACTIVE UNKNOWN

§ Identity

Operator
Country
US
Launch date
2026-04-11
Launch site
AFWTR
Launch vehicle
Mass (kg)
RCS (m²)

Purposes: comms

External: N2YO · Heavens-Above · Gunter

§ Orbital elements

Epoch: 2026-05-25T02:14:37.775328Z

Period
93.91 min
Inclination
97.2862°
Eccentricity
0.0001565
Mean motion
15.33454647 rev/d
Perigee alt
464.4 km
Apogee alt
466.6 km
Semi-major
6,843.7 km
B*
7.0852e-4
RAAN
16.6171°
Arg perigee
95.2626°
Mean anomaly
264.8795°
Rev number
686

§ Raw data

STARLINK-371531 68664U 26077C   26145.09349277  .00022875  00000+0  70852-3 0  99992 68664  97.2862  16.6171 0001565  95.2626 264.8795 15.33454647  6868

JSON: /api/v1/satellites/68664 · /tle

For live sub-satellite position, see the globe view (requires WebGL).

§ Visibility from observer

Set your observer location to see the next 7 days of passes ≥ 10°. The values pass through the URL so the page stays shareable.

No JS? Fill the form by hand. The geolocation button needs JavaScript.